Showing default

DEKART, 46493

Orbit data source: Space-Track

DEKART, 46493 is a payload satellite owned by MGU (CIS) in SSO that was launched on Mon, 28 Sep 2020 UTC via a SOYUZ-2-1B launch vehicle from the Plesetsk Missile And Space Complex (PKMTR). Payload-class satellites include a variety of spacecraft equipped with specific instruments for various scientific and technological missions. These include communications satellites like Starlink; space stations such as the ISS; scientific satellites like the Hubble; Earth observation satellites from companies like Planet Labs, Umbra, and HawkEye 360; GPS; miniature CubeSats for education and research; and military/defense satellites.

Loading next visibility...
Identifier
46493, 2020-068H
Orbit
SSO
Country
Flag of CISCIS
Related business
Manufacturer
MGU
Mission
Operational Amateur Science
Bus & Motor
CUBESAT 3U, Unknown motor
Mass
4 kg wet, 4 kg dry
Launch date (UTC)
2020-09-28 (5 years ago)
Launch vehicle
SOYUZ-2-1B
Launch site
Plesetsk Missile And Space Complex (PKMTR)
Object type
Payload
Rocket body
Debris
Shape & HBR
Box, Unknown HBR
Radar Cross Section
0.035 m², Medium (>0.1 m² and < 1m²)

Expand to show TLE details & history
Last TLE update: 6 hours ago

TLE from 6 hours ago
0 DEKART
1 46493U 20068H   25242.92108611  .00016330  00000-0  58757-3 0  9993
2 46493  97.8651 228.4252 0009588 220.4526 139.6001 15.28651154271299
Epoch: 2025-08-30T22:06Z
TLE epoch observation values (Epoch: 2025-08-30T22:06:21.839Z)
Latitude
-0°
Longitude
-82.51425°
Altitude
487.943 km
Speed
7.618 km/s
True Right ascension
15h 13m 42s
True Declination
0° 00' 00"
Sunlit
Object was in daylight at epoch
Visualization orbit readout
Latitude
Unknown
Longitude
Unknown
Altitude
Unknown
Speed
Unknown
Apparent Right ascension
Unknown
Apparent Declination
Unknown
Sunlit
N/A
Visualization observer readout
Local Sidereal Time
20:05:54
Azimuth
Unknown
Elevation
Unknown
Doppler factor
Unknown
Orbital elements
Apogee altitude
483.391 km
Perigee altitude
470.246 km
Semi-major axis
6,854.955 km
Eccentricity
0.00096
Inclination
97.8651°
RAAN
228.4252°
Arg. of periapsis
220.4526°
True anomaly
139.67124°
Mean anomaly
139.6001°
Eccentric anomaly
139.63568°
Mean motion
3.82416 °/min
Orbital period
94.14 mins
BSTAR
0.00058757
Loading maneuver chart data...
Computing Atmospheric mass density...
Loading historical data...
Loading historical data...
Loading historical data...
Loading historical data...
Loading historical data...
Loading historical data...
Loading historical data...

Documentation

Showing up to 5 results
|